Regional Weather Roundup
Issued by NWS

Home | Current Version | Previous Version | Graphics & Text | Print | Product List | Glossary On
Versions: 1 2 3 4 5 6 7 8 9 10 11 12 13 14 15 16 17 18 19 20 21 22 23 24 25 26 27 28 29 30 31 32 33 34 35 36 37 38 39 40 41 42 43 44 45 46 47 48 49 50
000
ASUS45 KTFX 230410
RWRMT
MONTANA REGIONAL WEATHER ROUNDUP
NATIONAL WEATHER SERVICE GREAT FALLS MT
1000 PM MDT SAT APR 22 2017

NOTE: "FAIR" INDICATES FEW OR NO CLOUDS BELOW 12000 FEET WITH NO
SIGNIFICANT WEATHER AND/OR OBSTRUCTIONS TO VISIBILITY.

MTZ001>007-043-230500-
WEST OF THE DIVIDE

CITY           SKY/WX    TMP DP  RH WIND       PRES   REMARKS
KALISPELL      MOCLDY    48  39  71 N3        29.87R
MISSOULA       CLOUDY    54  35  48 N5        29.88R
BUTTE          CLOUDY    50  26  39 SW8       29.95R
MULLAN PASS    LGT RAIN  37  34  89 NW9G23    29.94S WCI  30
ANACONDA         N/A     52  21  30 W5        29.92R
DEER LODGE       N/A     54  28  37 W5        29.94R
EUREKA           N/A     57  32  38 W7        29.87R
HAMILTON         N/A     55  27  33 SE5       29.89R
LIBBY            N/A     54  37  54 CALM      29.88R
PLAINS           N/A     55  39  54 CALM      29.88R
RONAN            N/A     51  40  66 CALM      29.93S
$$

MTZ008-052>055-230500-
SOUTHWEST MONTANA

CITY           SKY/WX    TMP DP  RH WIND       PRES   REMARKS
BOZEMAN        PTCLDY    48  37  65 SE8       29.93R
DILLON         CLOUDY    50  28  42 E3        29.95R
W YELLOWSTONE  CLOUDY    37  27  65 S5        30.07S
ENNIS          CLOUDY    48  27  43 S12       30.03S
THREE FORKS      N/A     56  56 100 S21       29.91S
TWIN BRIDGES     N/A     51  24  35 S3        29.95
$$

MTZ009-010-012-014-046-048-049-054-230500-
EAST SLOPES AND CENTRAL MONTANA

CITY           SKY/WX    TMP DP  RH WIND       PRES   REMARKS
CUT BANK       CLOUDY    48  38  68 E17       29.91R
GREAT FALLS    CLOUDY    52  38  58 E7        29.88S
MALMSTROM AFB  CLOUDY    52  40  62 N9        29.87S
HELENA         CLOUDY    54  36  50 W9        29.87R
AUGUSTA        MOCLDY    50  33  53 E3        29.89S
BOWMANS CRNR   MOCLDY    49  33  53 CALM      29.87S
CHOTEAU          N/A     48  37  66 CALM      29.91S
FAIRFIELD      MOCLDY    50  39  65 E7        29.88R
POWER          MOCLDY    48  38  68 E12       29.88S
RAYNESFORD     MOCLDY    49  36  62 CALM      29.89S
ULM            MOCLDY    50  40  66 E7        29.87S
$$

MTZ011-013-016-021-045-047-050-051-230500-
NORTH CENTRAL MONTANA

CITY           SKY/WX    TMP DP  RH WIND       PRES   REMARKS
HAVRE          MOCLDY    47  40  76 E20       29.95S
LEWISTOWN      CLOUDY    47  35  63 E6        29.91S
N BAR RANCH    CLOUDY    46  37  71 E6        29.98S
CHINOOK          N/A     48  39  71 E8        29.99R
DENTON           N/A     49  35  59 MISG      29.87S
FORT BENTON      N/A     52  39  62 MISG      29.88S
GEYSER           N/A     50  36  59 W5        29.88S
GRASS RANGE    MOCLDY    48  38  67 E7        29.90S
JUDITH GAP     MOCLDY    47  37  68 SE15G21   29.93S
STANFORD         N/A     46  37  70 S13       29.90F
WINIFRED         N/A     47  37  69 E14       29.90S
$$

MTZ017>020-022>027-061-062-230500-
NORTHEAST MONTANA

CITY           SKY/WX    TMP DP  RH WIND       PRES   REMARKS
GLASGOW        CLOUDY    45  38  76 E20       30.02F
JORDAN           N/A     51  42  71 E12G21    29.98R
SIDNEY         PTCLDY    41  34  76 NE14      30.09S
WOLF POINT     CLOUDY    45  37  73 E18       30.07R
MALTA          CLOUDY    46  41  81 E10G17    30.00S
PLENTYWOOD       N/A     37  34  87 E20G28    30.11F WCI  27
POPLAR           N/A     43  36  75 E16       30.08R
SCOBEY           N/A     38  32  79 E18       30.06  WCI  28
$$

MTZ028>42-056>058-230500-
SOUTHCENTRAL AND SOUTHEAST MONTANA

CITY           SKY/WX    TMP DP  RH WIND       PRES   REMARKS
BAKER          CLOUDY    51  42  71 E3        30.02F
BILLINGS       MOCLDY    53  37  54 S5        29.93S
LIVINGSTON     CLOUDY    54  27  35 SW13      29.92S
MILES CITY     CLEAR     52  40  63 E5        29.97F
BIG TIMBER     CLEAR     48  39  71 E6        29.95S
EKALAKA          N/A     45  37  73 SE3       30.00F
LAUREL           N/A     52  35  52 W2        29.93S
ROUNDUP          N/A     50  37  60 E5        29.87S
$$

REGIONAL REPORTS...DAKOTAS

CITY           SKY/WX    TMP DP  RH WIND       PRES   REMARKS
WILLISTON      CLOUDY    39  32  76 VRB7      30.13F
MINOT          CLOUDY    34  30  85 E15       30.21R WCI  24
DICKINSON      CLOUDY    39  35  86 NE18      30.07R WCI  30
BEACH          CLOUDY    48  41  76 E17G23    30.07S
TIOGA          CLOUDY    34  34 100 E23       30.16F WCI  22
WATFORD CITY   CLOUDY    37  34  87 E18G25    30.11F WCI  27
BISMARCK       CLOUDY    41  35  79 NE18      30.15R
GRAND FORKS    FLURRIES  35  31  85 N13       30.23S WCI  26
FARGO          LGT RAIN  39  33  79 N21G35    30.15R WCI  29
BUFFALO SD       N/A     54  40  59 E6        29.96F
RAPID CITY     CLEAR     46  33  60 S8        30.04S
$$

REGIONAL REPORTS...WYOMING/IDAHO/WASHINGTON

CITY           SKY/WX    TMP DP  RH WIND       PRES   REMARKS
GILLETTE       CLEAR     49  35  58 S15       29.99F
SHERIDAN       CLOUDY    44  38  79 CALM      29.97R
BUFFALO WY     CLEAR     43  35  73 W8        29.99S
CODY           CLOUDY    46  37  71 S3        30.00S
YELLOWSTONE LA   N/A     30  26  85 W5        30.11S
IDAHO FALLS    CLOUDY    51  29  42 S7        30.04R
SALMON         CLOUDY    54  27  35 S3        29.91R
BOISE          CLOUDY    63  32  31 SE13      29.82F
SPOKANE        MOCLDY    53  37  54 S10       29.90R
$$

REGIONAL REPORTS...ALBERTA

CITY           SKY/WX    TMP DP  RH WIND       PRES   REMARKS
EDMONTON       CLOUDY    34  21  60 E10       30.15F WCI  26
CALGARY        LGT RAIN  39  36  87 E10       29.97R FOG
LETHBRIDGE     LGT RAIN  45  41  87 E14       29.90F
MEDICINE HAT   CLOUDY    46  37  71 E14       29.97F
WATERTON GATE    N/A     43  27  52 SW3         N/A
CARDSTON         N/A     45  30  57 S6          N/A
MILK RIVER       N/A     45  39  81 E9          N/A
$$

REGIONAL REPORTS...SASKATCHEWAN

CITY           SKY/WX    TMP DP  RH WIND       PRES   REMARKS
SWIFT CURRENT  CLOUDY    41  32  70 E18G25    30.08S
REGINA         CLOUDY    39  28  65 E12G21    30.18S WCI  32
SASKATOON      MOCLDY    34  23  64 E9        30.24S WCI  26
CYPRESS HILLS    N/A     37  34  87 E9          N/A  WCI  31
VAL MARIE        N/A     41  37  87 E16         N/A
ROCKGLEN         N/A     36  36 100 E7G17       N/A  WCI  30
ASSINIBOIA       N/A     36  23  60 E10         N/A  WCI  28
$$



USA.gov is the U.S. government's official web portal to all federal, state and local government web resources and services.